User: anonymous   Login
Location: Newark
(19.5361°N, 155.5761°W)
Time: 03:17:26
(UTC+00:00)
Language:

EO-88 - Orbit

View from above orbital plane
View from above orbital plane
View from above satellite
View from above satellite

Ground track
Ground track

The orbit data is extracted from the following two-line orbital elements,

1 42017U 17008BX  20092.12747474 +.00001692 +00000-0 +68058-4 0  9998
2 42017 097.3667 160.8008 0005009 223.2065 136.8781 15.26272228173755
Epoch (UTC): 01 April 2020 03:03:33
Eccentricity: 0.0005009
inclination: 97.3667°
perigee height: 483 km
apogee height: 490 km
right ascension of ascending node: 160.8008°
argument of perigee: 223.2065°
revolutions per day: 15.26272228
mean anomaly at epoch: 136.8781°
orbit number at epoch: 17375

The dashed part of the orbit path shows where the satellite is in the earth's shadow,  

DLR